Tracking 17143 objects as of 25-May-2015
HD Live streaming from Space Station

DELTA 1 DEB

Track DELTA 1 DEB now!
10-day predictions
DELTA 1 DEB is classified as:


NORAD ID: 15205
Int'l Code: 1984-088E
Perigee: 556.1 km
Apogee: 3,861.2 km
Inclination: 28.7 °
Period: 131.8 minutes
Semi major axis: 8579 km
RCS: 0.0578 m2 (small)
Launch date: August 16, 1984
Source: United States (US)

Note: This is SATELLITE DEBRIS
Your satellite tracking list
Your tracking list is empty





NASA's NSSDC Master Catalog

Two Line Element Set (TLE):
1 15205U 84088E   15143.75602471  .00000825  00000-0  49705-3 0  9990
2 15205 028.7221 285.4911 1926179 139.3152 358.2316 10.92443463795180

Source of the keplerian elements: AFSPC

N2YO: 266